C/2018 A6 ( Gibbs )

Japanese version
Home page
Updated on September 17, 2019

---------------------------------------------------------------------

* Profile

Discovery Date January 15, 2018
Magnitude 19.3 mag
Discoverer A. R. Gibbs (Mount Lemmon)

* Pictures

* Orbital Elements

Epoch 2019 July 16.0 TT = JDT 2458680.5
T 2019 July 14.26684 TT                                 MPCW
q   3.0177637            (2000.0)            P               Q
n   0.01637690     Peri.  264.52763     -0.16525649     +0.93045657
a  15.3573014      Node   340.38603     +0.22092861     -0.28822615
e   0.8034965      Incl.   76.95484     -0.96118720     -0.22622169
P  60.18
From 334 observations 2017 Apr. 3-2019 May 11, mean residual 0".4.

* Finding Charts

* Magnitudes Graph

        m1 = 4.2 + 5 log d + 15.0 log r

---------------------------------------------------------------------

The orbital elements are published on M.P.E.C. 2019-J142.
The charts are made with StellaNavigator Ver.10 (AstroArts).
The magnitudes graphs are made with Comet for Windows.

---------------------------------------------------------------------

Copyright(C) Seiichi Yoshida (comet@aerith.net). All rights reserved.